Weather History for KBLF - September, 2013

Change the Weather History Date:

Sunday, September 29, 2013

  Actual Average Record
Temperature  
Mean Temperature 61 °F 61 °F  
Max Temperature 70 °F 70 °F 82 °F (1986)
Min Temperature 51 °F 52 °F 33 °F (1967)
Degree Days  
Heating Degree Days 4 5  
Month to date heating degree days 47 68  
Since 1 July heating degree days 53 74  
Cooling Degree Days 0 2  
Month to date cooling degree days 104 99  
Year to date cooling degree days 906 833  
Growing Degree Days 10 (Base 50)    
Moisture  
Dew Point 50 °F    
Average Humidity 66    
Maximum Humidity 78    
Minimum Humidity 53    
Precipitation  
Precipitation 0.00 in 0.11 in 1.93 in (1972)
Month to date precipitation 1.49 3.03  
Year to date precipitation 31.71 31.42  
Snow  
Snow 0.00 in - - ()
Month to date snowfall 0.0  
Since 1 July snowfall 0.0  
Since 1 September snowfall 0.0  
Snow Depth 0.00 in    
Sea Level Pressure  
Sea Level Pressure 30.12 in    
Wind  
Wind Speed 2 mph (SW)    
Max Wind Speed 9 mph    
Max Gust Speed 12 mph    
Visibility 10 miles    
Events      
T = Trace of Precipitation, MM = Missing Value Source: NWS Daily Summary

Daily Weather History Graph

Daily Weather History Graph

Search for Another Location

Airport or City:

Trip Planner

Search our weather history database for the weather conditions in past years. The results will help you decide how hot, cold, wet, or windy it might be!

Date:

Astronomy

Sep. 29, 2013 Rise Set
Actual Time 7:18 AM EDT 7:10 PM EDT
Civil Twilight 6:52 AM EDT 7:36 PM EDT
Nautical Twilight 6:22 AM EDT 8:06 PM EDT
Astronomical Twilight 5:51 AM EDT 8:37 PM EDT
Moon 2:04 AM EDT (9/29) 4:00 PM EDT (9/29)
Length of Visible Light 12h 43m
Length of Day
11h 51m
Waning Crescent, 27% of the Moon is Illuminated
Sep 29
Waning Crescent
Oct 4
New
Oct 11
First Quarter
Oct 18
Full
Oct 26
Last Quarter

Hourly Weather History & Observations

Time (EDT) Temp. Dew Point Humidity Pressure Visibility Wind Dir Wind Speed Gust Speed Precip Events Conditions
12:52 AM 54.0 °F 46.9 °F 77% 30.16 in 10.0 mi ESE 5.8 mph - N/A   Clear
1:52 AM 54.0 °F 46.0 °F 75% 30.16 in 10.0 mi Variable 3.5 mph - N/A   Clear
2:52 AM 53.1 °F 45.0 °F 74% 30.14 in 10.0 mi ESE 4.6 mph - N/A   Clear
3:52 AM 53.1 °F 45.0 °F 74% 30.13 in 10.0 mi Variable 3.5 mph - N/A   Clear
4:52 AM 53.1 °F 45.0 °F 74% 30.14 in 10.0 mi Variable 4.6 mph - N/A   Mostly Cloudy
5:52 AM 53.1 °F 45.0 °F 74% 30.13 in 10.0 mi East 3.5 mph - N/A   Partly Cloudy
6:52 AM 52.0 °F 45.0 °F 77% 30.16 in 10.0 mi SE 4.6 mph - N/A   Partly Cloudy
7:52 AM 51.1 °F 45.0 °F 80% 30.17 in 10.0 mi Calm Calm - N/A   Mostly Cloudy
8:52 AM 53.1 °F 46.0 °F 77% 30.16 in 10.0 mi Calm Calm - N/A   Clear
9:52 AM 61.0 °F 48.9 °F 64% 30.14 in 10.0 mi Calm Calm - N/A   Scattered Clouds
10:11 AM 60.8 °F 48.2 °F 63% 30.20 in 10.0 mi Calm Calm - N/A   Mostly Cloudy
10:52 AM 63.0 °F 48.0 °F 58% 30.14 in 10.0 mi NE 3.5 mph - N/A   Overcast
11:10 AM 64.4 °F 48.2 °F 56% 30.20 in 10.0 mi Calm Calm - N/A   Overcast
11:52 AM 66.0 °F 50.0 °F 56% 30.12 in 10.0 mi Calm Calm - N/A   Mostly Cloudy
12:20 PM 66.2 °F 51.8 °F 60% 30.18 in 10.0 mi West 6.9 mph - N/A   Overcast
12:34 PM 68.0 °F 50.0 °F 52% 30.18 in 10.0 mi Calm Calm - N/A   Mostly Cloudy
12:42 PM 69.8 °F 51.8 °F 53% 30.18 in 10.0 mi West 4.6 mph - N/A   Mostly Cloudy
12:52 PM 66.9 °F 51.1 °F 57% 30.11 in 10.0 mi Calm Calm - N/A   Mostly Cloudy
1:31 PM 69.8 °F 51.8 °F 53% 30.16 in 10.0 mi West 9.2 mph - N/A   Mostly Cloudy
1:52 PM 69.1 °F 51.1 °F 53% 30.08 in 10.0 mi SW 4.6 mph - N/A   Mostly Cloudy
2:52 PM 69.1 °F 51.1 °F 53% 30.06 in 10.0 mi Calm Calm - N/A   Overcast
3:52 PM 69.1 °F 52.0 °F 54% 30.05 in 10.0 mi WNW 3.5 mph - N/A   Overcast
4:52 PM 68.0 °F 54.0 °F 61% 30.05 in 10.0 mi West 4.6 mph - N/A   Overcast
5:52 PM 66.9 °F 54.0 °F 63% 30.06 in 10.0 mi West 3.5 mph - N/A   Overcast
6:52 PM 64.9 °F 55.0 °F 70% 30.06 in 10.0 mi Calm Calm - N/A   Overcast
7:52 PM 63.0 °F 54.0 °F 72% 30.06 in 10.0 mi Calm Calm - N/A   Clear
8:52 PM 61.0 °F 54.0 °F 78% 30.06 in 10.0 mi Calm Calm - N/A   Clear
9:52 PM 61.0 °F 51.1 °F 70% 30.05 in 10.0 mi SE 5.8 mph - N/A   Clear
10:52 PM 60.1 °F 51.1 °F 72% 30.05 in 10.0 mi Calm Calm - N/A   Clear
11:52 PM 59.0 °F 52.0 °F 78% 30.05 in 10.0 mi Calm Calm - N/A   Clear